Tracking 30986 objects as of 9-Jul-2025
HD Live streaming from Space Station
objects crossing your sky now

UWE-3

Track UWE-3 now!
10-day predictions
UWE-3 is classified as:


NORAD ID: 39446
Int'l Code: 2013-066AG
Perigee: 558.0 km
Apogee: 632.9 km
Inclination: 97.8 °
Period: 96.4 minutes
Semi major axis: 6966 km
RCS: Unknown
Launch date: November 21, 2013
Source: Germany (GER)
Launch site: Orenburg, Russia (OREN)

Uplink (MHz):
Downlink (MHz): 435.000/436.395/437.385*
Beacon (MHz):
Mode: 9600bps GMSK CW
Call sign: DP0UWG
Status: Inactive

Your satellite tracking list
Your tracking list is empty




NASA's NSSDC Master Catalog

Two Line Element Set (TLE):
1 39446U 13066AG  25189.82465635  .00003222  00000-0  30623-3 0  9992
2 39446  97.8249 140.5899 0053768  23.9304 336.4397 14.93102250626278
Source of the keplerian elements: Caltech